STARLINK-3048, 49148

Orbit data source: Space-Track

STARLINK-3048, 49148 is a payload satellite owned by SpaceX/Seattle (US) in LEO that was launched on Tue, 14 Sep 2021 UTC via an FALCON 9 launch vehicle from the Air Force Western Test Range (AFWTR). Payload-class satellites include a variety of spacecraft equipped with specific instruments for various scientific and technological missions. These include communications satellites like Starlink; space stations such as the ISS; scientific satellites like the Hubble; Earth observation satellites from companies like Planet Labs, Umbra, and HawkEye 360; GPS; miniature CubeSats for education and research; and military/defense satellites.

Loading next visibility...
Identifier
49148, 2021-082U
Orbit
LEO
Country
Flag of USUS
Related business
Manufacturer
SpaceX/Seattle
Mission
Operational Commercial Communications
Bus & Motor
STARLINK, Unknown motor
Mass
297 kg wet, ~275 kg dry
Launch date (UTC)
2021-09-14 (5 years ago)
Launch vehicle
FALCON 9
Launch site
Air Force Western Test Range (AFWTR)
Object type
Payload
Rocket body
Debris
Shape & HBR
Box + 1 Pan, 10.1 m
Radar Cross Section
13.562 m², Large (>1 m²)

Expand to show TLE details & history
Last TLE update: 3 days ago

TLE from 3 days ago
0 STARLINK-3048
1 49148U 21082U   26170.92864581  .00000328  00000-0  35917-4 0  9990
2 49148  69.9998  17.7728 0002205 266.9821  93.1085 14.97523649261750
Epoch: 2026-06-19T22:17Z
TLE epoch observation values (Epoch: 2026-06-19T22:17:14.997Z)
Latitude
-0.00009°
Longitude
135.3097°
Altitude
577.057 km
Speed
7.572 km/s
True Right ascension
01h 11m 05s
True Declination
0° 00' 00"
Sunlit
Object was in daylight at epoch
Visualization orbit readout
Latitude
Unknown
Longitude
Unknown
Altitude
Unknown
Speed
Unknown
Apparent Right ascension
Unknown
Apparent Declination
Unknown
Sunlit
N/A
Visualization observer readout
Local Sidereal Time
21:37:51
Azimuth
Unknown
Elevation
Unknown
Doppler factor
Unknown
Orbital elements
Apogee altitude
574.032 km
Perigee altitude
570.967 km
Semi-major axis
6,950.637 km
Eccentricity
0.00022
Inclination
69.9998°
RAAN
17.7728°
Arg. of periapsis
266.9821°
True anomaly
93.13373°
Mean anomaly
93.1085°
Eccentric anomaly
93.12111°
Mean motion
3.74547 °/min
Orbital period
96.12 mins
BSTAR
0.000035917
Loading maneuver chart data...
Computing Atmospheric mass density...

Documentation

Showing up to 5 results
|